IBE04YE LEMD-LEBB

Flight info

Callsign IBE04YE
Flight time 0h 36m
Altitude 22000
Route LEMD/36L SIE N858 DGO
Aircraft A20N/M-SDE2E3FGHIJ1RWXY/LB1

Departure

Time 2026-05-03 20:19
Airport Adolfo Suárez Madrid–Barajas Airport (LEMD)

Arrival

Time 2026-05-03 20:55
Airport Bilbao Airport (LEBB)
Time Latitude Longitude Altitude Speed Heading
2026-05-03 20:15 40.49742 -3.59249 2030 ft 13 kts 58°
2026-05-03 20:15 40.49744 -3.59110 2030 ft 18 kts 88°
2026-05-03 20:15 40.49745 -3.58916 2030 ft 24 kts 88°
2026-05-03 20:15 40.49735 -3.58798 2025 ft 18 kts 104°
2026-05-03 20:16 40.49701 -3.58639 2022 ft 20 kts 160°
2026-05-03 20:16 40.49552 -3.58636 2022 ft 23 kts 180°
2026-05-03 20:16 40.49383 -3.58636 2022 ft 25 kts 178°
2026-05-03 20:16 40.49250 -3.58625 2028 ft 13 kts 147°
2026-05-03 20:17 40.49241 -3.58498 2018 ft 18 kts 90°
2026-05-03 20:17 40.49241 -3.58302 2011 ft 25 kts 90°
2026-05-03 20:17 40.49242 -3.58064 2001 ft 25 kts 89°
2026-05-03 20:17 40.49243 -3.57877 1996 ft 19 kts 90°
2026-05-03 20:18 40.49243 -3.57692 1989 ft 17 kts 88°
2026-05-03 20:18 40.49272 -3.57553 1987 ft 21 kts 58°
2026-05-03 20:18 40.49429 -3.57454 1983 ft 31 kts
2026-05-03 20:18 40.49816 -3.57466 1987 ft 89 kts
2026-05-03 20:19 40.50636 -3.57464 1994 ft 144 kts
2026-05-03 20:19 40.51744 -3.57449 2319 ft 163 kts 359°
2026-05-03 20:19 40.52884 -3.57419 2972 ft 163 kts 357°
2026-05-03 20:19 40.54024 -3.57439 3619 ft 165 kts 355°
2026-05-03 20:20 40.55218 -3.57490 4056 ft 180 kts 347°
2026-05-03 20:20 40.56274 -3.58321 4473 ft 187 kts 301°
2026-05-03 20:20 40.56858 -3.59924 5006 ft 203 kts 288°
2026-05-03 20:20 40.57660 -3.61545 5596 ft 222 kts 313°
2026-05-03 20:21 40.58880 -3.62829 6495 ft 226 kts 321°
2026-05-03 20:21 40.60180 -3.64016 7427 ft 229 kts 321°
2026-05-03 20:21 40.61471 -3.65236 8292 ft 234 kts 319°
2026-05-03 20:21 40.62784 -3.66558 9167 ft 239 kts 317°
2026-05-03 20:22 40.64274 -3.67602 10032 ft 251 kts 343°
2026-05-03 20:22 40.66066 -3.67642 10660 ft 272 kts 10°
2026-05-03 20:22 40.67975 -3.66932 11062 ft 297 kts 16°
2026-05-03 20:22 40.70007 -3.66000 11441 ft 322 kts 19°
2026-05-03 20:23 40.72195 -3.64960 11763 ft 346 kts 19°
2026-05-03 20:23 40.74512 -3.63894 12152 ft 365 kts 18°
2026-05-03 20:23 40.76945 -3.62820 12941 ft 371 kts 17°
2026-05-03 20:23 40.79423 -3.61750 13760 ft 378 kts 16°
2026-05-03 20:24 40.81943 -3.60667 14520 ft 381 kts 16°
2026-05-03 20:24 40.84477 -3.59578 15315 ft 385 kts 16°
2026-05-03 20:24 40.87036 -3.58476 16068 ft 389 kts 16°
2026-05-03 20:24 40.89629 -3.57358 16811 ft 393 kts 16°
2026-05-03 20:25 40.92239 -3.56230 17570 ft 397 kts 16°
2026-05-03 20:25 40.94875 -3.55090 18295 ft 401 kts 15°
2026-05-03 20:25 40.97550 -3.53957 18883 ft 407 kts 15°
2026-05-03 20:25 41.00234 -3.52823 19447 ft 413 kts 15°
2026-05-03 20:26 41.02987 -3.51645 20031 ft 418 kts 15°
2026-05-03 20:26 41.05794 -3.50427 20612 ft 424 kts 15°
2026-05-03 20:26 41.08588 -3.49207 21173 ft 430 kts 15°
2026-05-03 20:26 41.11455 -3.47951 21728 ft 435 kts 15°
2026-05-03 20:27 41.14317 -3.46567 21933 ft 440 kts 19°
2026-05-03 20:27 41.17150 -3.45054 21981 ft 439 kts 20°
2026-05-03 20:27 41.19981 -3.43518 21982 ft 439 kts 20°
2026-05-03 20:27 41.22806 -3.41977 21979 ft 439 kts 20°
2026-05-03 20:28 41.25639 -3.40430 21981 ft 440 kts 20°
2026-05-03 20:28 41.28471 -3.38882 21980 ft 441 kts 20°
2026-05-03 20:28 41.31305 -3.37332 21979 ft 440 kts 20°
2026-05-03 20:28 41.34131 -3.35785 21980 ft 440 kts 20°
2026-05-03 20:29 41.36932 -3.34253 21980 ft 440 kts 20°
2026-05-03 20:29 41.39756 -3.32707 21980 ft 439 kts 20°
2026-05-03 20:29 41.42585 -3.31156 21977 ft 439 kts 20°
2026-05-03 20:29 41.45410 -3.29606 21976 ft 439 kts 20°
2026-05-03 20:30 41.48234 -3.28055 21976 ft 438 kts 20°
2026-05-03 20:30 41.51056 -3.26504 21981 ft 438 kts 20°
2026-05-03 20:30 41.53879 -3.24952 21968 ft 438 kts 20°
2026-05-03 20:30 41.56669 -3.23416 21980 ft 438 kts 20°
2026-05-03 20:31 41.59485 -3.21864 21966 ft 438 kts 20°
2026-05-03 20:31 41.62302 -3.20311 21969 ft 438 kts 20°
2026-05-03 20:31 41.65117 -3.18758 21967 ft 437 kts 20°
2026-05-03 20:31 41.67933 -3.17202 21982 ft 437 kts 20°
2026-05-03 20:32 41.70751 -3.15643 21984 ft 437 kts 20°
2026-05-03 20:32 41.73560 -3.14088 21981 ft 437 kts 20°
2026-05-03 20:32 41.76371 -3.12531 21980 ft 437 kts 20°
2026-05-03 20:32 41.79177 -3.10975 21983 ft 436 kts 20°
2026-05-03 20:33 41.81986 -3.09417 21975 ft 437 kts 20°
2026-05-03 20:33 41.84765 -3.07873 21980 ft 437 kts 20°
2026-05-03 20:33 41.87573 -3.06311 21973 ft 436 kts 20°
2026-05-03 20:33 41.90379 -3.04749 21983 ft 436 kts 21°
2026-05-03 20:34 41.93185 -3.03186 21983 ft 436 kts 21°
2026-05-03 20:34 41.95983 -3.01625 21983 ft 436 kts 21°
2026-05-03 20:34 41.98789 -3.00059 21981 ft 435 kts 21°
2026-05-03 20:34 42.01583 -2.98499 21985 ft 435 kts 21°
2026-05-03 20:35 42.04382 -2.96934 21980 ft 435 kts 21°
2026-05-03 20:35 42.07144 -2.95389 21983 ft 435 kts 21°
2026-05-03 20:35 42.09938 -2.93823 21974 ft 433 kts 21°
2026-05-03 20:35 42.12721 -2.92261 21959 ft 434 kts 21°
2026-05-03 20:36 42.15509 -2.90697 21742 ft 434 kts 21°
2026-05-03 20:36 42.18286 -2.89136 21480 ft 430 kts 21°
2026-05-03 20:36 42.21035 -2.87590 21219 ft 427 kts 21°
2026-05-03 20:36 42.23780 -2.86045 20966 ft 425 kts 21°
2026-05-03 20:37 42.26500 -2.84512 20708 ft 422 kts 21°
2026-05-03 20:37 42.29196 -2.82991 20454 ft 419 kts 21°
2026-05-03 20:37 42.31889 -2.81472 20195 ft 419 kts 21°
2026-05-03 20:37 42.34541 -2.79973 19973 ft 417 kts 21°
2026-05-03 20:38 42.37209 -2.78464 19718 ft 414 kts 21°
2026-05-03 20:38 42.39864 -2.76961 19476 ft 412 kts 21°
2026-05-03 20:38 42.42510 -2.75461 19236 ft 410 kts 21°
2026-05-03 20:38 42.45141 -2.73970 18906 ft 409 kts 22°
2026-05-03 20:39 42.47768 -2.72478 18375 ft 409 kts 22°
2026-05-03 20:39 42.50380 -2.70995 17824 ft 405 kts 22°
2026-05-03 20:39 42.52936 -2.69541 17302 ft 400 kts 22°
2026-05-03 20:39 42.55492 -2.68085 16784 ft 395 kts 22°
2026-05-03 20:40 42.58008 -2.66651 16276 ft 391 kts 22°
2026-05-03 20:40 42.60503 -2.65228 15769 ft 386 kts 21°
2026-05-03 20:40 42.62968 -2.63821 15264 ft 383 kts 21°
2026-05-03 20:40 42.65410 -2.62426 14772 ft 379 kts 22°
2026-05-03 20:41 42.67833 -2.61028 14286 ft 376 kts 22°
2026-05-03 20:41 42.70223 -2.59642 13832 ft 372 kts 22°
2026-05-03 20:41 42.72598 -2.58271 13329 ft 369 kts 22°
2026-05-03 20:41 42.74955 -2.56915 12836 ft 365 kts 21°
2026-05-03 20:42 42.77284 -2.55578 12370 ft 361 kts 21°
2026-05-03 20:42 42.79586 -2.54259 11910 ft 357 kts 21°
2026-05-03 20:42 42.81848 -2.52964 11451 ft 354 kts 21°
2026-05-03 20:42 42.84108 -2.51669 10988 ft 351 kts 21°
2026-05-03 20:43 42.86350 -2.50383 10538 ft 348 kts 21°
2026-05-03 20:43 42.88551 -2.49117 10325 ft 337 kts 21°
2026-05-03 20:43 42.90664 -2.47901 10204 ft 323 kts 21°
2026-05-03 20:43 42.92698 -2.46730 10039 ft 312 kts 21°
2026-05-03 20:44 42.94684 -2.45588 9760 ft 307 kts 20°
2026-05-03 20:44 42.96629 -2.44468 9571 ft 300 kts 21°
2026-05-03 20:44 42.98527 -2.43376 9237 ft 299 kts 21°
2026-05-03 20:44 43.00444 -2.42271 8894 ft 296 kts 21°
2026-05-03 20:45 43.02336 -2.41180 8558 ft 293 kts 21°
2026-05-03 20:45 43.04206 -2.40100 8219 ft 289 kts 21°
2026-05-03 20:45 43.06039 -2.39073 7830 ft 288 kts 15°
2026-05-03 20:45 43.07978 -2.38861 7555 ft 275 kts 348°
2026-05-03 20:46 43.09703 -2.39819 7225 ft 266 kts 320°
2026-05-03 20:46 43.11002 -2.41573 6888 ft 261 kts 311°
2026-05-03 20:46 43.12229 -2.43412 6535 ft 259 kts 308°
2026-05-03 20:46 43.13269 -2.45408 6208 ft 256 kts 299°
2026-05-03 20:47 43.14136 -2.47557 6044 ft 267 kts 296°
2026-05-03 20:47 43.14966 -2.49808 5998 ft 258 kts 295°
2026-05-03 20:47 43.15750 -2.51934 5995 ft 242 kts 295°
2026-05-03 20:47 43.16482 -2.53921 5991 ft 225 kts 295°
2026-05-03 20:48 43.17153 -2.55748 6002 ft 208 kts 295°
2026-05-03 20:48 43.17774 -2.57437 5959 ft 190 kts 295°
2026-05-03 20:48 43.18350 -2.59005 5742 ft 178 kts 295°
2026-05-03 20:48 43.18883 -2.60456 5486 ft 164 kts 295°
2026-05-03 20:49 43.19379 -2.61804 5252 ft 153 kts 295°
2026-05-03 20:49 43.19846 -2.63078 5036 ft 150 kts 295°
2026-05-03 20:49 43.20307 -2.64338 4825 ft 149 kts 295°
2026-05-03 20:49 43.20777 -2.65613 4600 ft 150 kts 295°
2026-05-03 20:50 43.21241 -2.66879 4364 ft 147 kts 296°
2026-05-03 20:50 43.21700 -2.68131 4144 ft 147 kts 296°
2026-05-03 20:50 43.22163 -2.69388 3925 ft 147 kts 296°
2026-05-03 20:50 43.22618 -2.70628 3701 ft 145 kts 297°
2026-05-03 20:51 43.23072 -2.71872 3478 ft 147 kts 297°
2026-05-03 20:51 43.23534 -2.73125 3259 ft 146 kts 297°
2026-05-03 20:51 43.23988 -2.74363 3040 ft 144 kts 297°
2026-05-03 20:51 43.24439 -2.75594 2820 ft 145 kts 297°
2026-05-03 20:52 43.24894 -2.76835 2597 ft 145 kts 298°
2026-05-03 20:52 43.25338 -2.78040 2395 ft 140 kts 298°
2026-05-03 20:52 43.25761 -2.79199 2171 ft 132 kts 298°
2026-05-03 20:52 43.26156 -2.80298 1927 ft 125 kts 297°
2026-05-03 20:53 43.26530 -2.81381 1705 ft 127 kts 297°
2026-05-03 20:53 43.26939 -2.82473 1583 ft 130 kts 299°
2026-05-03 20:53 43.27364 -2.83593 1371 ft 135 kts 297°
2026-05-03 20:53 43.27788 -2.84765 1133 ft 139 kts 296°
2026-05-03 20:54 43.28226 -2.85961 945 ft 140 kts 298°
2026-05-03 20:54 43.29088 -2.88293 510 ft 138 kts 296°
2026-05-03 20:54 43.29522 -2.89453 297 ft 135 kts 298°
2026-05-03 20:55 43.29929 -2.90566 143 ft 123 kts 298°
2026-05-03 20:55 43.30240 -2.91414 132 ft 57 kts 297°
2026-05-03 20:55 43.30392 -2.91810 127 ft 37 kts 307°
2026-05-03 20:55 43.30569 -2.92026 125 ft 17 kts 325°
2026-05-03 20:56 43.30628 -2.91983 125 ft 13 kts 98°
2026-05-03 20:56 43.30580 -2.91842 123 ft 20 kts 117°
2026-05-03 20:56 43.30515 -2.91654 131 ft 22 kts 120°
2026-05-03 20:56 43.30441 -2.91458 133 ft 21 kts 122°
2026-05-03 20:57 43.30368 -2.91252 134 ft 25 kts 117°
2026-05-03 20:57 43.30304 -2.91076 132 ft 18 kts 104°
2026-05-03 20:57 43.30392 -2.90980 140 ft 17 kts 32°
2026-05-03 20:57 43.30408 -2.90845 145 ft 17 kts 86°
2026-05-03 20:58 43.30385 -2.90737 146 ft 1 kts 120°
2026-05-03 20:58 43.30388 -2.90723 147 ft 2 kts 60°
2026-05-03 20:58 43.30395 -2.90722 147 ft 3 kts 13°
2026-05-03 20:58 43.30414 -2.90749 148 ft 7 kts 317°
2026-05-03 20:59 43.30457 -2.90747 151 ft 4 kts 25°
2026-05-03 20:59 43.30460 -2.90745 151 ft 1 kts 26°
2026-05-03 20:59 43.30469 -2.90739 152 ft 1 kts 26°
2026-05-03 20:59 43.30473 -2.90736 152 ft 0 kts 27°